Chelsea Heart and Sole
Skip Navigation Links
Results
Details
Mobile Results
09 May 2015
Page 1 of 2 (74 items)
[1]2
Pos
Race No
Fav
Share
Print
Name
Gun Time
Net Time
Category
Cat Pos
Gender
Gen Pos
Pace
1709Terry Draper00:38:18.5FinishedOverall1Male121.6 m/hr
2760Doug Mckibbon00:38:19.8Finished40-491Male221.6 m/hr
3729Sam Smith00:38:20.4Finished30-391Male321.7 m/hr
4723Jason Perkins00:38:32.6Finished40-492Male421.5 m/hr
5719Chris Mannor00:39:56.3Finished40-493Male520.7 m/hr
6738Scott Weiss00:39:58.4Finished30-392Male620.8 m/hr
7766Mike Adams00:42:27.4Finished40-494Male719.5 m/hr
8762Mike Coffman00:42:29.6Finished40-495Male819.5 m/hr
9767Patrich Hoag00:43:10.1Finished30-393Male919.2 m/hr
10707Don Campbell00:43:14.1Finished60-691Male1019.2 m/hr
11765Matthew Baltall00:44:49.6Finished30-394Male1118.5 m/hr
12294Patrick Oates00:47:11.6Finished40-496Male1217.6 m/hr
13298Justin Roemer00:51:31.6Finished20-291Male1316.2 m/hr
14753Jay Soriano00:52:05.9Finished40-497Male1416.0 m/hr
15749Benjamin Nabozny00:52:36.1Finished30-395Male1515.8 m/hr
16705Davita Burkhead-Weiner00:52:43.4FinishedOverall1Female115.7 m/hr
17761Guillame Couement00:53:15.1Finished40-498Male1615.6 m/hr
18752Julie Soriano00:54:32.6Finished40-491Female215.3 m/hr
19737Paul Ulisse00:54:40.5Finished20-292Male1715.2 m/hr
20756Allen Cole00:55:34.6Finished40-499Male1815.0 m/hr
21717Patrick Johnson00:55:36.5Finished40-4910Male1915.0 m/hr
22706Pierce Butler00:56:47.9Finished20-293Male2014.7 m/hr
23731Benjamin Thoms00:57:35.4Finished14-191Male2114.5 m/hr
24747Greg Hodder00:57:47.1Finished50-591Male2214.4 m/hr
25702Anthony Barnabo00:57:52.8Finished30-396Male2314.4 m/hr
26746Paul Charles00:58:11.1Finished50-592Male2414.4 m/hr
27297Teresa Kissling-Aksenon00:58:21.5Finished40-492Female314.3 m/hr
28745Mark Tuneff00:58:30.4Finished50-593Male2514.3 m/hr
29741Deborah Beagle00:59:11.9Finished40-493Female414.0 m/hr
30703Jim Beagle00:59:12.1Finished40-4911Male2614.0 m/hr
31732Steven Thoms00:59:18.6Finished50-594Male2714.0 m/hr
32754Patricia Winebrenner01:00:19.9Finished40-494Female513.9 m/hr
33725Janice Rey01:01:04.9Finished50-591Female613.6 m/hr
34300Gary Wickel01:01:33.5Finished60-692Male2813.5 m/hr
35751Jeffery Shoemaker01:01:35.5Finished30-397Male2913.6 m/hr
36722Josh Norman01:02:17.7Finished30-398Male3013.4 m/hr
37769Kellie Mckibbon01:03:27.3Finished40-495Female713.1 m/hr
38770Shannon Mcelroy01:03:47.6Finished20-291Female813.1 m/hr
39744Ana Hotaling01:04:00.2Finished40-496Female913.0 m/hr
40718Rob Mahan01:04:05.1Finished50-595Male3113.0 m/hr
41768Christi Becker01:04:24.4Finished50-592Female1012.9 m/hr
42759Harry Brodbeck01:05:23.8Finished50-596Male3212.8 m/hr
43292Zachary Dickman01:05:42.9FinishedAge Unknown1Male3312.7 m/hr
44750Benjamin A Nabozny01:05:48.2Finished50-597Male3412.6 m/hr
45720Kevin Nauts01:05:55.5Finished20-294Male3512.9 m/hr
46711Sarah Early01:07:59.2Finished20-292Female1112.3 m/hr
47748Mackenzie Konschuh01:09:37.4Finished14-192Female1212.0 m/hr
48758Molly Olk01:09:37.4Finished14-191Female1312.0 m/hr
49712Sharon Early01:12:22.2Finished50-593Female1411.5 m/hr
50710Bryan Early01:12:22.4Finished50-598Male3611.5 m/hr
Page 1 of 2 (74 items)
[1]2